NKS1012 KRDU-KLGA

Flight info

Callsign NKS1012
Flight time 1h 8m
Altitude 37000
Route BEXGO5 BOUSY GEARS Q87 HURTS PROUD2
Aircraft A320/M-SDE3FGHIRWY/LB1

Departure

Time 2026-05-07 01:12
Airport Raleigh-Durham International Airport (KRDU)

Arrival

Time 2026-05-07 02:20
Airport LaGuardia Airport (KLGA)
Time Latitude Longitude Altitude Speed Heading
2026-05-07 00:49 35.87850 -78.79155 393 ft 0 kts 315°
2026-05-07 00:49 35.87851 -78.79158 392 ft 0 kts 315°
2026-05-07 01:00 35.87843 -78.79147 392 ft 4 kts 322°
2026-05-07 01:00 35.87820 -78.79133 392 ft 4 kts 360°
2026-05-07 01:01 35.87799 -78.79141 392 ft 2 kts 45°
2026-05-07 01:01 35.87796 -78.79146 392 ft 0 kts 45°
2026-05-07 01:03 35.87802 -78.79138 392 ft 5 kts 45°
2026-05-07 01:04 35.87835 -78.79097 392 ft 8 kts 45°
2026-05-07 01:04 35.87882 -78.79039 392 ft 10 kts 45°
2026-05-07 01:04 35.87941 -78.78975 392 ft 12 kts 28°
2026-05-07 01:04 35.88021 -78.78980 392 ft 13 kts 322°
2026-05-07 01:05 35.88095 -78.79057 392 ft 14 kts 345°
2026-05-07 01:05 35.88180 -78.78996 391 ft 16 kts 47°
2026-05-07 01:05 35.88262 -78.78890 391 ft 18 kts 45°
2026-05-07 01:05 35.88357 -78.78773 391 ft 20 kts 45°
2026-05-07 01:06 35.88461 -78.78645 392 ft 22 kts 45°
2026-05-07 01:06 35.88573 -78.78507 392 ft 24 kts 45°
2026-05-07 01:06 35.88692 -78.78359 392 ft 25 kts 45°
2026-05-07 01:06 35.88817 -78.78202 392 ft 26 kts 45°
2026-05-07 01:07 35.88952 -78.78039 391 ft 28 kts 47°
2026-05-07 01:07 35.89045 -78.77845 392 ft 26 kts 47°
2026-05-07 01:07 35.89172 -78.77689 392 ft 19 kts 44°
2026-05-07 01:07 35.89241 -78.77668 392 ft 0 kts 345°
2026-05-07 01:08 35.89259 -78.77679 392 ft 5 kts 327°
2026-05-07 01:08 35.89269 -78.77690 392 ft 0 kts 319°
2026-05-07 01:09 35.89280 -78.77702 392 ft 7 kts 319°
2026-05-07 01:09 35.89307 -78.77733 392 ft 0 kts 315°
2026-05-07 01:10 35.89308 -78.77735 392 ft 2 kts 315°
2026-05-07 01:10 35.89341 -78.77776 393 ft 10 kts 314°
2026-05-07 01:11 35.89342 -78.77854 392 ft 11 kts 231°
2026-05-07 01:11 35.89324 -78.77877 392 ft 0 kts 225°
2026-05-07 01:11 35.89307 -78.77899 392 ft 22 kts 225°
2026-05-07 01:12 35.88977 -78.78305 392 ft 108 kts 225°
2026-05-07 01:12 35.88294 -78.79148 457 ft 162 kts 223°
2026-05-07 01:12 35.87436 -78.80190 873 ft 185 kts 224°
2026-05-07 01:12 35.86530 -78.81315 1610 ft 188 kts 226°
2026-05-07 01:13 35.85560 -78.82534 1922 ft 211 kts 226°
2026-05-07 01:13 35.84474 -78.83903 2333 ft 234 kts 226°
2026-05-07 01:13 35.83316 -78.85362 3074 ft 241 kts 226°
2026-05-07 01:13 35.82140 -78.86848 4001 ft 242 kts 228°
2026-05-07 01:14 35.80962 -78.88342 4917 ft 244 kts 229°
2026-05-07 01:14 35.79770 -78.89862 5666 ft 250 kts 230°
2026-05-07 01:14 35.78559 -78.91409 5923 ft 252 kts 230°
2026-05-07 01:14 35.77362 -78.92939 5992 ft 251 kts 230°
2026-05-07 01:15 35.76155 -78.94482 6012 ft 250 kts 230°
2026-05-07 01:15 35.74940 -78.96026 6130 ft 254 kts 229°
2026-05-07 01:15 35.73833 -78.97690 6902 ft 251 kts 247°
2026-05-07 01:15 35.73473 -78.99764 7691 ft 252 kts 273°
2026-05-07 01:16 35.74007 -79.01817 8496 ft 260 kts 299°
2026-05-07 01:16 35.75310 -79.03417 9273 ft 274 kts 323°
2026-05-07 01:16 35.77171 -79.04178 9979 ft 295 kts 351°
2026-05-07 01:16 35.79241 -79.03696 10592 ft 318 kts 19°
2026-05-07 01:17 35.81144 -79.02060 10776 ft 349 kts 37°
2026-05-07 01:17 35.82947 -78.99920 11028 ft 369 kts 43°
2026-05-07 01:17 35.84696 -78.97556 11586 ft 376 kts 45°
2026-05-07 01:17 35.86434 -78.95109 11912 ft 379 kts 46°
2026-05-07 01:18 35.88176 -78.92666 11992 ft 380 kts 45°
2026-05-07 01:18 35.89945 -78.90247 12009 ft 379 kts 44°
2026-05-07 01:18 35.91735 -78.87862 12008 ft 378 kts 43°
2026-05-07 01:18 35.93546 -78.85500 12008 ft 378 kts 43°
2026-05-07 01:19 35.95365 -78.83156 12008 ft 378 kts 43°
2026-05-07 01:19 35.97160 -78.80844 12009 ft 378 kts 43°
2026-05-07 01:19 35.98975 -78.78497 12008 ft 378 kts 43°
2026-05-07 01:19 36.00793 -78.76141 12036 ft 380 kts 43°
2026-05-07 01:20 36.02623 -78.73765 12664 ft 382 kts 43°
2026-05-07 01:20 36.04457 -78.71375 13372 ft 385 kts 43°
2026-05-07 01:20 36.06307 -78.68961 14007 ft 388 kts 43°
2026-05-07 01:20 36.08169 -78.66529 14567 ft 391 kts 43°
2026-05-07 01:21 36.10045 -78.64075 15125 ft 394 kts 42°
2026-05-07 01:21 36.11939 -78.61594 15661 ft 398 kts 42°
2026-05-07 01:21 36.13846 -78.59092 16203 ft 401 kts 41°
2026-05-07 01:21 36.15770 -78.56567 16746 ft 405 kts 41°
2026-05-07 01:22 36.17712 -78.54018 17291 ft 409 kts 41°
2026-05-07 01:22 36.19674 -78.51446 17848 ft 413 kts 41°
2026-05-07 01:22 36.21664 -78.48843 18304 ft 419 kts 40°
2026-05-07 01:22 36.23673 -78.46207 18767 ft 423 kts 41°
2026-05-07 01:23 36.25692 -78.43546 19256 ft 426 kts 41°
2026-05-07 01:23 36.27799 -78.40957 19743 ft 424 kts 33°
2026-05-07 01:23 36.30128 -78.38731 20228 ft 424 kts 30°
2026-05-07 01:23 36.32506 -78.36526 20705 ft 427 kts 30°
2026-05-07 01:24 36.34897 -78.34312 21175 ft 430 kts 30°
2026-05-07 01:24 36.37271 -78.32111 21617 ft 433 kts 30°
2026-05-07 01:24 36.39723 -78.29836 22079 ft 436 kts 30°
2026-05-07 01:24 36.42131 -78.27595 22535 ft 440 kts 30°
2026-05-07 01:25 36.44591 -78.25296 22935 ft 444 kts 30°
2026-05-07 01:25 36.47066 -78.22979 23355 ft 447 kts 30°
2026-05-07 01:25 36.49557 -78.20646 23737 ft 450 kts 30°
2026-05-07 01:25 36.52069 -78.18293 24094 ft 453 kts 30°
2026-05-07 01:26 36.54591 -78.15922 24451 ft 456 kts 30°
2026-05-07 01:26 36.57125 -78.13536 24854 ft 458 kts 30°
2026-05-07 01:26 36.59675 -78.11129 25214 ft 461 kts 30°
2026-05-07 01:26 36.62238 -78.08705 25571 ft 464 kts 30°
2026-05-07 01:27 36.64817 -78.06265 25924 ft 467 kts 31°
2026-05-07 01:27 36.67418 -78.03800 26218 ft 471 kts 31°
2026-05-07 01:27 36.70002 -78.01347 26534 ft 475 kts 31°
2026-05-07 01:27 36.72637 -77.98847 26845 ft 477 kts 31°
2026-05-07 01:28 36.75288 -77.96325 27181 ft 480 kts 31°
2026-05-07 01:28 36.77950 -77.93791 27513 ft 482 kts 31°
2026-05-07 01:28 36.80576 -77.91159 27855 ft 488 kts 37°
2026-05-07 01:28 36.82922 -77.88045 28180 ft 497 kts 47°
2026-05-07 01:29 36.84954 -77.84512 28493 ft 502 kts 51°
2026-05-07 01:29 36.86952 -77.80916 28784 ft 507 kts 51°
2026-05-07 01:29 36.88978 -77.77282 29068 ft 511 kts 51°
2026-05-07 01:29 36.91011 -77.73639 29372 ft 514 kts 51°
2026-05-07 01:30 36.93060 -77.69966 29678 ft 516 kts 52°
2026-05-07 01:30 36.95116 -77.66272 29980 ft 519 kts 52°
2026-05-07 01:30 36.97185 -77.62550 30233 ft 522 kts 51°
2026-05-07 01:30 36.99261 -77.58809 30548 ft 523 kts 51°
2026-05-07 01:31 37.01328 -77.55077 30951 ft 522 kts 51°
2026-05-07 01:31 37.03368 -77.51389 31309 ft 522 kts 50°
2026-05-07 01:31 37.05433 -77.47653 31693 ft 522 kts 49°
2026-05-07 01:31 37.07515 -77.43889 31915 ft 526 kts 49°
2026-05-07 01:32 37.09643 -77.40148 32197 ft 525 kts 44°
2026-05-07 01:32 37.12063 -77.36776 32535 ft 515 kts 35°
2026-05-07 01:32 37.14645 -77.33676 32905 ft 515 kts 34°
2026-05-07 01:32 37.17229 -77.30570 33302 ft 514 kts 34°
2026-05-07 01:33 37.19808 -77.27464 33713 ft 513 kts 33°
2026-05-07 01:33 37.22383 -77.24355 34097 ft 513 kts 33°
2026-05-07 01:33 37.24948 -77.21251 34434 ft 511 kts 33°
2026-05-07 01:33 37.27505 -77.18156 34780 ft 511 kts 33°
2026-05-07 01:34 37.30072 -77.15050 34887 ft 513 kts 33°
2026-05-07 01:34 37.35212 -77.08824 34917 ft 514 kts 33°
2026-05-07 01:35 37.39478 -77.03638 34915 ft 514 kts 33°
2026-05-07 01:35 37.45516 -76.96495 34916 ft 503 kts 25°
2026-05-07 01:35 37.48359 -76.94042 34923 ft 489 kts 16°
2026-05-07 01:36 37.51342 -76.92045 34912 ft 485 kts 14°
2026-05-07 01:36 37.56358 -76.88740 34911 ft 486 kts 14°
2026-05-07 01:37 37.62311 -76.84775 34934 ft 486 kts 14°
2026-05-07 01:37 37.68294 -76.80784 34940 ft 486 kts 14°
2026-05-07 01:38 37.74274 -76.76785 34931 ft 485 kts 14°
2026-05-07 01:38 37.80238 -76.72791 34922 ft 485 kts 14°
2026-05-07 01:39 37.86197 -76.68795 34915 ft 485 kts 14°
2026-05-07 01:39 37.92188 -76.64860 34923 ft 483 kts 13°
2026-05-07 01:40 37.98198 -76.61099 34906 ft 481 kts 12°
2026-05-07 01:40 38.01259 -76.59675 34903 ft 453 kts 356°
2026-05-07 01:40 38.04241 -76.59344 34902 ft 426 kts 345°
2026-05-07 01:40 38.07167 -76.59430 34893 ft 415 kts 343°
2026-05-07 01:41 38.10039 -76.59540 34895 ft 411 kts 343°
2026-05-07 01:41 38.15764 -76.59747 34893 ft 412 kts 343°
2026-05-07 01:42 38.21508 -76.59946 34894 ft 413 kts 343°
2026-05-07 01:42 38.27256 -76.60148 34893 ft 413 kts 343°
2026-05-07 01:43 38.33002 -76.60353 34893 ft 413 kts 343°
2026-05-07 01:43 38.38766 -76.60535 34931 ft 414 kts 343°
2026-05-07 01:44 38.44635 -76.59741 34923 ft 457 kts
2026-05-07 01:44 38.47524 -76.57760 34921 ft 488 kts 25°
2026-05-07 01:44 38.50046 -76.54700 34920 ft 513 kts 43°
2026-05-07 01:44 38.51958 -76.50764 34917 ft 532 kts 60°
2026-05-07 01:45 38.53088 -76.46228 34905 ft 541 kts 76°
2026-05-07 01:45 38.54314 -76.36772 34908 ft 543 kts 79°
2026-05-07 01:45 38.54904 -76.32004 34690 ft 542 kts 77°
2026-05-07 01:46 38.55905 -76.27399 34154 ft 534 kts 62°
2026-05-07 01:46 38.57635 -76.23287 33703 ft 517 kts 46°
2026-05-07 01:46 38.59932 -76.19881 33224 ft 497 kts 33°
2026-05-07 01:46 38.62463 -76.16877 32728 ft 494 kts 32°
2026-05-07 01:47 38.64978 -76.13909 32218 ft 492 kts 33°
2026-05-07 01:47 38.67483 -76.10950 31795 ft 488 kts 33°
2026-05-07 01:47 38.69972 -76.08006 31367 ft 486 kts 33°
2026-05-07 01:47 38.72442 -76.05080 30942 ft 483 kts 34°
2026-05-07 01:48 38.74908 -76.02154 30561 ft 481 kts 33°
2026-05-07 01:48 38.77356 -75.99242 30140 ft 479 kts 33°
2026-05-07 01:48 38.79785 -75.96343 29703 ft 477 kts 34°
2026-05-07 01:48 38.82206 -75.93445 29263 ft 473 kts 34°
2026-05-07 01:49 38.84599 -75.90579 28849 ft 470 kts 34°
2026-05-07 01:49 38.86985 -75.87723 28454 ft 466 kts 33°
2026-05-07 01:49 38.89329 -75.84924 27837 ft 469 kts 33°
2026-05-07 01:49 38.91723 -75.82070 27251 ft 470 kts 34°
2026-05-07 01:50 38.93346 -75.80131 26938 ft 468 kts 33°
2026-05-07 01:50 38.96659 -75.76746 26383 ft 455 kts 26°
2026-05-07 01:50 38.99197 -75.74343 25989 ft 452 kts 26°
2026-05-07 01:50 39.01725 -75.71950 25608 ft 449 kts 26°
2026-05-07 01:51 39.04226 -75.69582 25229 ft 445 kts 26°
2026-05-07 01:51 39.06715 -75.67223 24849 ft 442 kts 26°
2026-05-07 01:51 39.09184 -75.64878 24473 ft 439 kts 26°
2026-05-07 01:51 39.11631 -75.62552 24110 ft 435 kts 26°
2026-05-07 01:52 39.14060 -75.60250 23908 ft 434 kts 26°
2026-05-07 01:52 39.16490 -75.57947 23862 ft 434 kts 26°
2026-05-07 01:52 39.18924 -75.55634 23878 ft 435 kts 26°
2026-05-07 01:52 39.21364 -75.53311 23878 ft 435 kts 26°
2026-05-07 01:53 39.23800 -75.50993 23838 ft 436 kts 26°
2026-05-07 01:53 39.26256 -75.48728 23609 ft 432 kts 24°
2026-05-07 01:53 39.28725 -75.46537 23374 ft 429 kts 24°
2026-05-07 01:53 39.31191 -75.44392 23110 ft 426 kts 23°
2026-05-07 01:54 39.33646 -75.42264 22867 ft 424 kts 24°
2026-05-07 01:54 39.36086 -75.40136 22593 ft 422 kts 24°
2026-05-07 01:54 39.38481 -75.38026 22339 ft 420 kts 25°
2026-05-07 01:54 39.40885 -75.35891 22087 ft 418 kts 25°
2026-05-07 01:55 39.43273 -75.33757 21826 ft 417 kts 25°
2026-05-07 01:55 39.45650 -75.31629 21569 ft 415 kts 25°
2026-05-07 01:55 39.48015 -75.29510 21321 ft 412 kts 25°
2026-05-07 01:55 39.50367 -75.27405 21066 ft 410 kts 25°
2026-05-07 01:56 39.52707 -75.25288 20815 ft 409 kts 26°
2026-05-07 01:56 39.55020 -75.23148 20595 ft 409 kts 27°
2026-05-07 01:56 39.57319 -75.20989 20349 ft 408 kts 28°
2026-05-07 01:56 39.59606 -75.18827 20103 ft 406 kts 28°
2026-05-07 01:57 39.61890 -75.16663 19692 ft 404 kts 28°
2026-05-07 01:57 39.64158 -75.14516 19252 ft 402 kts 28°
2026-05-07 01:57 39.66419 -75.12379 18813 ft 400 kts 29°
2026-05-07 01:57 39.68672 -75.10276 18377 ft 398 kts 28°
2026-05-07 01:58 39.70948 -75.08254 17919 ft 395 kts 27°
2026-05-07 01:58 39.73229 -75.06297 17478 ft 391 kts 26°
2026-05-07 01:58 39.75496 -75.04385 17153 ft 384 kts 26°
2026-05-07 01:58 39.77725 -75.02507 16802 ft 380 kts 26°
2026-05-07 01:59 39.79930 -75.00638 16391 ft 378 kts 27°
2026-05-07 01:59 39.82123 -74.98761 15982 ft 376 kts 27°
2026-05-07 01:59 39.84275 -74.96923 15571 ft 374 kts 27°
2026-05-07 01:59 39.86538 -74.95243 15153 ft 364 kts 14°
2026-05-07 02:00 39.88908 -74.94472 14750 ft 349 kts 358°
2026-05-07 02:00 39.91315 -74.94081 14339 ft 354 kts
2026-05-07 02:00 39.93532 -74.92572 13972 ft 370 kts 37°
2026-05-07 02:00 39.95080 -74.89882 13593 ft 375 kts 65°
2026-05-07 02:01 39.95916 -74.86670 13149 ft 375 kts 72°
2026-05-07 02:01 39.96506 -74.84504 12877 ft 373 kts 65°
2026-05-07 02:01 39.98364 -74.80805 12347 ft 366 kts 44°
2026-05-07 02:01 40.00121 -74.78421 11912 ft 365 kts 43°
2026-05-07 02:02 40.01861 -74.76011 11492 ft 364 kts 44°
2026-05-07 02:02 40.03576 -74.73574 11059 ft 364 kts 44°
2026-05-07 02:02 40.05273 -74.71126 10640 ft 363 kts 45°
2026-05-07 02:02 40.06960 -74.68676 10214 ft 363 kts 45°
2026-05-07 02:03 40.08624 -74.66259 10058 ft 352 kts 45°
2026-05-07 02:03 40.10230 -74.63933 9862 ft 337 kts 44°
2026-05-07 02:03 40.11782 -74.61693 9695 ft 331 kts 44°
2026-05-07 02:03 40.13334 -74.59464 9616 ft 331 kts 44°
2026-05-07 02:04 40.14868 -74.57261 9495 ft 331 kts 44°
2026-05-07 02:04 40.16414 -74.55033 9347 ft 330 kts 44°
2026-05-07 02:04 40.17952 -74.52814 9199 ft 329 kts 44°
2026-05-07 02:04 40.19504 -74.50565 9051 ft 328 kts 44°
2026-05-07 02:05 40.21027 -74.48410 8910 ft 326 kts 42°
2026-05-07 02:05 40.22627 -74.46320 8773 ft 324 kts 40°
2026-05-07 02:05 40.24253 -74.44292 8632 ft 323 kts 39°
2026-05-07 02:05 40.25885 -74.42282 8480 ft 321 kts 39°
2026-05-07 02:06 40.27510 -74.40274 8337 ft 321 kts 39°
2026-05-07 02:06 40.29131 -74.38257 8203 ft 323 kts 39°
2026-05-07 02:06 40.30764 -74.36213 8051 ft 324 kts 39°
2026-05-07 02:06 40.32379 -74.34178 7980 ft 322 kts 40°
2026-05-07 02:07 40.33993 -74.32136 7763 ft 320 kts 40°
2026-05-07 02:07 40.37174 -74.28097 7477 ft 318 kts 40°
2026-05-07 02:07 40.38760 -74.26086 7340 ft 316 kts 40°
2026-05-07 02:08 40.40341 -74.24080 7190 ft 315 kts 40°
2026-05-07 02:08 40.41925 -74.22071 7055 ft 317 kts 40°
2026-05-07 02:08 40.43497 -74.20073 7002 ft 314 kts 40°
2026-05-07 02:08 40.45068 -74.18073 7008 ft 315 kts 40°
2026-05-07 02:09 40.46644 -74.16065 6857 ft 317 kts 40°
2026-05-07 02:09 40.48228 -74.14049 6510 ft 317 kts 40°
2026-05-07 02:09 40.49803 -74.12040 6357 ft 315 kts 40°
2026-05-07 02:09 40.51376 -74.10040 6214 ft 314 kts 38°
2026-05-07 02:10 40.53133 -74.08442 6062 ft 302 kts 16°
2026-05-07 02:10 40.55106 -74.07594 5912 ft 296 kts
2026-05-07 02:10 40.57089 -74.06908 5760 ft 294 kts
2026-05-07 02:10 40.59062 -74.06245 5611 ft 293 kts
2026-05-07 02:11 40.61034 -74.05589 5465 ft 291 kts
2026-05-07 02:11 40.62990 -74.04939 5315 ft 289 kts
2026-05-07 02:11 40.64931 -74.04298 5163 ft 287 kts
2026-05-07 02:11 40.66866 -74.03667 5028 ft 287 kts
2026-05-07 02:12 40.68799 -74.03022 4879 ft 285 kts
2026-05-07 02:12 40.70728 -74.02388 4732 ft 285 kts
2026-05-07 02:12 40.72653 -74.01760 4586 ft 284 kts
2026-05-07 02:12 40.74569 -74.01141 4427 ft 281 kts
2026-05-07 02:13 40.76443 -74.00535 4274 ft 281 kts
2026-05-07 02:13 40.78342 -73.99924 4107 ft 280 kts
2026-05-07 02:13 40.80228 -73.99332 3955 ft 275 kts
2026-05-07 02:13 40.82057 -73.98570 3801 ft 279 kts 22°
2026-05-07 02:14 40.83744 -73.97287 3649 ft 280 kts 27°
2026-05-07 02:14 40.85402 -73.95920 3500 ft 280 kts 27°
2026-05-07 02:14 40.87052 -73.94570 3371 ft 277 kts 27°
2026-05-07 02:14 40.88692 -73.93236 3214 ft 277 kts 27°
2026-05-07 02:15 40.90321 -73.91902 3080 ft 274 kts 27°
2026-05-07 02:15 40.91935 -73.90575 2949 ft 271 kts 27°
2026-05-07 02:15 40.93504 -73.89264 2821 ft 261 kts 31°
2026-05-07 02:15 40.94662 -73.87524 2683 ft 250 kts 62°
2026-05-07 02:16 40.95118 -73.85365 2560 ft 244 kts 85°
2026-05-07 02:16 40.94795 -73.83221 2435 ft 237 kts 121°
2026-05-07 02:16 40.93696 -73.81674 2314 ft 229 kts 155°
2026-05-07 02:16 40.92197 -73.81034 2189 ft 228 kts 174°
2026-05-07 02:17 40.90635 -73.80698 2082 ft 225 kts 177°
2026-05-07 02:17 40.89123 -73.80407 1987 ft 213 kts 177°
2026-05-07 02:17 40.87706 -73.80205 1976 ft 196 kts 188°
2026-05-07 02:17 40.86449 -73.80569 1802 ft 178 kts 211°
2026-05-07 02:18 40.85431 -73.81360 1603 ft 162 kts 219°
2026-05-07 02:18 40.84543 -73.82092 1428 ft 145 kts 219°
2026-05-07 02:18 40.83702 -73.82791 1224 ft 139 kts 218°
2026-05-07 02:18 40.82897 -73.83459 1031 ft 135 kts 217°
2026-05-07 02:19 40.82095 -73.84125 859 ft 136 kts 217°
2026-05-07 02:19 40.81284 -73.84797 689 ft 136 kts 216°
2026-05-07 02:19 40.80486 -73.85457 506 ft 137 kts 214°
2026-05-07 02:19 40.79662 -73.86140 328 ft 142 kts 213°
2026-05-07 02:20 40.79104 -73.86601 205 ft 144 kts 215°
2026-05-07 02:20 40.78268 -73.87295 23 ft 143 kts 214°
2026-05-07 02:20 40.77526 -73.87915 24 ft 102 kts 213°
2026-05-07 02:20 40.77096 -73.88281 27 ft 49 kts 213°
2026-05-07 02:21 40.76946 -73.88430 30 ft 2 kts 256°
2026-05-07 02:21 40.76953 -73.88443 30 ft 1 kts 317°
2026-05-07 02:21 40.76964 -73.88447 29 ft 4 kts 340°
2026-05-07 02:21 40.77010 -73.88455 27 ft 8 kts 357°
2026-05-07 02:22 40.77075 -73.88442 24 ft 11 kts 23°
2026-05-07 02:22 40.77142 -73.88388 22 ft 12 kts 32°
2026-05-07 02:22 40.77203 -73.88336 21 ft 10 kts 31°
2026-05-07 02:22 40.77239 -73.88304 21 ft 0 kts 39°
2026-05-07 02:23 40.77241 -73.88301 21 ft 2 kts 37°
2026-05-07 02:23 40.77264 -73.88292 20 ft 4 kts 359°
2026-05-07 02:23 40.77288 -73.88309 20 ft 4 kts 302°
2026-05-07 02:23 40.77290 -73.88338 19 ft 4 kts 271°
2026-05-07 02:24 40.77294 -73.88372 19 ft 4 kts 294°
2026-05-07 02:24 40.77316 -73.88386 20 ft 4 kts 343°
2026-05-07 02:24 40.77329 -73.88381 18 ft 1 kts
2026-05-07 02:24 40.77330 -73.88381 19 ft 1 kts
2026-05-07 02:25 40.77333 -73.88380 19 ft 1 kts
2026-05-07 02:25 40.77336 -73.88380 19 ft 0 kts